www.pogodaiklimat.ru

Погода и климат >> Архив погоды >> Узбекистан >> Жаслык


ПОГОДА в Жаслыке

  • Прогноз погоды в Жаслыке
  • Монитор погоды в Жаслыке
  • Климат города

АРХИВ ПОГОДЫ в Жаслыке

Время (UTC), дата Ветер
(напр.,м/с)
 
Видим.   Явления Облачность Т
(С)
Тd
(С)
f
(%)
Тe
(С)
Тes
(С)
Комфортность P
(гПа)
Po
(гПа)
Тmin
(С)
Tmax
(С)
R
(мм)
R24
(мм)
S
(см)
18 12.08 штиль 0 20 км ясно +25.4 +3.2 24 +24 +24 комфорт 1013.1 998.4 +33.5
21 12.08 штиль 0 20 км ясно +18.4 +3.8 38 +19 +19 1013.4 998.3
00 13.08 СЗ 2 20 км ясно +19.0 -0.9 26 +20 +20 1013.0 998.0
03 13.08 СВ 1 20 км 3/0
[Ac trans]
+22.5 +0.6 23 +22 +24 комфорт 1013.0 998.1
06 13.08 СВ 2 20 км 3/0
[Ac trans]
+32.0 +2.3 15 +29 +40 жарко 1012.1 997.7 +17.0
09 13.08 В 2 20 км 3/0
[Ac trans]
+34.0 +2.7 14 +31 +44 жарко 1011.2 997.0
12 13.08 Ю 3 20 км 3/0
[Ac trans]
+35.0 +4.0 14 +32 +36 жарко 1009.9 995.7
15 13.08 З 2 20 км 3/1 600 м
[Cb cap Ac trans]
+32.2 +4.6 18 +30 +30 жарко 1009.9 995.6 +36.5
18 13.08 В 2 20 км 4/4 600 м
[Cb cap]
+26.7 +4.6 24 +26 +26 жарко 1010.0 995.4 +36.5
21 13.08 СВ 1 20 км 4/0
[Ci sp]
+23.8 +4.8 29 +24 +24 комфорт 1009.7 995.0
00 14.08 СЗ 1 20 км 3/0
[Ci sp]
+25.0 +6.8 31 +25 +25 комфорт 1009.8 995.2
03 14.08 В 2 20 км 5/0
[Ac trans]
+24.4 +6.7 32 +24 +26 комфорт 1010.2 995.5
06 14.08 Ю 2 20 км 8/8 600 м
[Cb cap]
+31.4 +8.4 24 +30 +33 жарко 1010.1 995.8 +22.5
09 14.08 З 3 20 км 8/0
[Ac und]
+34.0 +7.0 19 +32 +38 жарко 1009.3 995.1
12 14.08 ЮЗ 2 20 км 5/0
[Ac trans]
+34.9 +5.1 16 +32 +37 жарко 1008.7 994.5
15 14.08 З 2 20 км 3/0
[Ci sp]
+33.9 +6.1 18 +32 +32 жарко 1007.8 993.6 +36.6
18 14.08 СЗ 3 20 км ясно +29.1 +5.8 23 +28 +28 жарко 1009.4 994.9 +36.6
21 14.08 СЗ 2 20 км ясно +25.3 +7.4 32 +25 +25 комфорт 1009.7 995.1
00 15.08 С 3 20 км ясно +23.0 +8.4 39 +24 +24 комфорт 1010.2 995.5
03 15.08 Ю 2 20 км 8/8 600 м
[Cb cap Ac trans Ci]
+23.4 +9.7 42 +25 +26 комфорт 1011.3 996.5
06 15.08 С 3 20 км 8/0
[Ac trans Ci fib]
+31.9 +8.5 23 +31 +38 жарко 1011.6 997.3 +22.0
09 15.08 З 5 20 км 10/10 600 м
[Cb cap]
+32.1 +9.0 24 +31 +31 жарко 1012.1 997.7
12 15.08 ЮЗ 3 20 км 9/4 600 м
[Cb cap Ac trans]
+30.2 +9.9 28 +30 +32 жарко 1011.1 996.7
15 15.08 З 2 20 км 8/3 600 м
[Cb cap Ac trans Ci fib]
+28.8 +9.5 30 +29 +29 жарко 1011.7 997.2 +33.9
18 15.08 СЗ 2 20 км 4/0
[Ac trans]
+23.7 +11.9 48 +25 +25 комфорт 1013.1 998.3 +33.9
21 15.08 С 1 20 км 6/0
[Ac trans]
+23.0 +11.9 50 +26 +26 жарко 1013.2 998.4
00 16.08 В 2 20 км 10/0
[Ci sp]
+23.4 +9.9 42 +25 +25 комфорт 1013.0 998.2
03 16.08 З 2 20 км 9/8 600 м
[Cb cap Ac trans]
+23.6 +9.4 40 +24 +25 комфорт 1015.1 1000.3
06 16.08 ЮВ 1 20 км 6/0
[Ac trans Ci sp]
+31.9 +7.8 22 +31 +41 жарко 1015.1 1000.7 +23.0
09 16.08 В 2 20 км 8/0
[Ac trans]
+34.4 +7.4 19 +33 +41 жарко 1014.4 1000.1
12 16.08 штиль 0 20 км 8/0
[Ac trans Ci sp]
+34.1 +8.1 20 +32 +38 жарко 1013.8 999.5
15 16.08 В 7 20 км 6/0
[Ac trans Ci sp]
+32.0 +7.7 22 +31 +31 жарко 1013.6 999.2 +35.9
18 16.08 В 5 20 км 5/0
[Ac trans]
+27.2 +5.6 25 +26 +26 жарко 1014.3 999.7 +35.9
21 16.08 В 7 20 км 5/0
[Ac trans]
+25.1 +1.9 22 +24 +24 комфорт 1014.4 999.7
00 17.08 В 5 20 км 8/8 600 м
[Cb cap]
+23.7 +1.7 24 +23 +23 комфорт 1014.4 999.6
03 17.08 В 6 20 км 8/4 600 м
[Cb cap Ac trans]
+24.0 +2.3 24 +23 +23 комфорт 1015.2 1000.4
06 17.08 ЮВ 5 20 км 8/0
[Ac trans Ci sp]
+29.2 +3.2 19 +27 +31 жарко 1015.1 1000.6 +21.9
09 17.08 В 5 20 км 10/10 600 м
[Cb cap]
+29.9 +1.7 16 +27 +27 жарко 1013.8 999.4
12 17.08 В 5 20 км 9/5 600 м
[Cb cap Ac trans]
+30.7 +0.9 15 +28 +29 жарко 1012.2 997.7
15 17.08 СВ 7 20 км 9/9 600 м
[Cb cap]
+28.6 +1.5 17 +26 +26 жарко 1011.5 997.0 +31.7
18 17.08 СВ 2 20 км 3/3 600 м
[Cb cap]
+22.9 +3.6 28 +23 +23 комфорт 1011.1 996.3 +31.7
21 17.08 СВ 2 20 км ясно +19.7 +2.5 32 +21 +21 комфорт 1010.1 995.2
00 18.08 СВ 2 20 км 3/3 600 м
[Cb cap]
+17.9 +4.5 41 +18 +18 1009.9 994.9
03 18.08 СВ 3 20 км 3/3 600 м
[Cb cap]
+19.8 +5.9 40 +21 +22 комфорт 1010.0 995.1
06 18.08 В 3 20 км 6/0
[Ac trans]
+30.3 +2.3 17 +28 +34 жарко 1008.8 994.4 +17.1
09 18.08 С 1 20 км 5/0
[Ac trans]
+33.2 +0.6 13 +30 +43 жарко 1007.4 993.1
12 18.08 С 1 20 км 5/0
[Ac trans]
+33.4 +2.1 14 +30 +35 жарко 1006.7 992.4
15 18.08 В 2 20 км 4/0
[Ci sp]
+32.0 +0.2 13 +29 +29 жарко 1006.2 991.9 +35.3
18 18.08 В 2 20 км ясно +25.0 +0.2 20 +24 +24 комфорт 1006.2 991.5 +35.3
21 18.08 ЮВ 2 20 км ясно +22.4 +1.3 25 +22 +22 комфорт 1005.6 990.8
00 19.08 СВ 1 20 км ясно +20.2 +2.1 30 +22 +22 комфорт 1005.6 990.7
03 19.08 СВ 1 20 км 6/4 600 м
[Cb cap Ac trans]
+20.6 +1.3 28 +22 +23 комфорт 1005.5 990.6
06 19.08 В 3 20 км 10/10 600 м
[Cb cap]
+28.4 +1.9 18 +26 +26 жарко 1005.4 990.9 +16.3
09 19.08 СЗ 2 10 км слабый ливневой дождь 10/10 600 м
[Cb cap]
+26.3 +15.1 50 +29 +29 жарко 1005.7 991.1
12 19.08 З 5 10 км слабый ливневой дождь 10/10 600 м
[Cb cap]
+18.7 +16.5 87 +19 +19 1008.3 993.3
15 19.08 В 5 20 км в посл. час ливневой дождь 9/9 600 м
[Cb cap]
+17.2 +15.7 91 +17 +17 1006.7 991.7 +29.8

 

Местоположение метеостанции Жаслык (Каракалпакстан, Узбекистан): широта 43.88 долгота 57.52 высота над уровнем моря 128 м.

В архиве по умолчанию представлена погода в Жаслыке за последнюю неделю. Архивные данные за месяц целиком и за предыдущие месяцы, начиная с января 2011 года, Вы можете получить, выбрав интересующий диапазон дат из раскрывающегося списка и нажав кнопку "Ввод!".


*Определитесь, кто Вы:
робот инопланетянин человек

Внимание! Время в таблицах - всемирное. Для получения местного времени необходимо прибавить поправку, которая в Жаслыке равна 5 ч.

Смотрите также архив погоды в соседних городах и на ближайших метеорологических станциях:

Погода в Муйнаке (Каракалпакстан, Узбекистан) (98 км)
Погода в Каракалпакии (Каракалпакстан, Узбекистан) (144 км)
Погода в Кунграде (Каракалпакстан, Узбекистан) (144 км)
Погода в Саме (Мангистауская область, Казахстан) (202 км)
Погода в Чимбае (Каракалпакстан, Узбекистан) (213 км)
Погода в Кенеургенче (Дашогузский велаят, Туркменистан) (219 км)
Погода в Тахтакупыре (Каракалпакстан, Узбекистан) (231 км)
Погода в Нукусе (Каракалпакстан, Узбекистан) (233 км)
Погода в Тахиаташе (Каракалпакстан, Узбекистан) (236 км)
Погода в Бейнеу (Мангистауская область, Казахстан) (244 км)

Пояснения к столбцам:

Ветер - указаны скорость ветра в м/с - средняя за 10 мин, порывы в срок и между сроками (в фигурных скобках) и направление, откуда дует ветер: С - северный, СВ - северо-восточный, В - восточный, ЮВ - юго-восточный, Ю - южный, ЮЗ - юго-западный, З - западный, СЗ - северо-западный.
Видимость - горизонтальная дальность видимости в метрах или километрах. При видимости от 1 до 10 км при отсутствии осадков обычно наблюдается дымка, при ухудшении видимости до 1 км и менее - туман. В сухую погоду видимость может ухудшаться дымом, пылью или мглою.
Явления - указаны атмосферные явления, наблюдавшиеся в срок или в последний час перед сроком; фигурными скобками обозначены явления, наблюдавшиеся между сроками (за 1-3 часа до срока); квадратными скобками обозначены град или гололедные отложения с указанием их диаметра в мм.
Облачность - указаны через наклонную черту общая и нижняя облачность в баллах и высота нижней границы облаков в метрах; квадратными скобками обозначены формы облаков: Ci - перистые, Cs - перисто-слоистые, Cc - перисто-кучевые, Ac - высококучевые, As - высокослоистые, Sc - слоисто-кучевые, Ns - слоисто-дождевые, Cu - кучевые, Cb - кучево-дождевые. Подробнее классификацию облаков см. в Атласе облаков (PDF).
T - Температура воздуха - температура, измеренная на высоте 2 м над землей.
Td - Температура точки росы - температура, при понижении до которой содержащийся в воздухе водяной пар достигнет насыщения.
f - Относительная влажность воздуха - влажноcть воздуха, измеренная на высоте 2 м над землей.
Te - Эффективная температура - температура, которую ощущает одетый по сезону человек в тени. Характеристика душности погоды. При расчете учитывается влияние влажности воздуха и скорости ветра на теплоощущения человека.
Tes - Эффективная температура на солнце - температура, которую ощущает человек, с поправкой на солнечный нагрев. Характеристика знойности погоды. Зависит от высоты солнца над горизонтом, облачности и скорости ветра. Ночью, в пасмурную погоду, а также при ветре 12 м/с и более поправка равна нулю.
P - Атмосферное давление - приведенное к уровню моря атмосферное давление.
Po - Атмосферное давление - измеренное на уровне метеостанции атмосферное давление.
Tmin - Минимальная температура - минимум температуры воздуха на высоте 2 м над землей.
Tmax - Максимальная температура - максимум температуры воздуха на высоте 2 м над землей.
R - Количество осадков - Количество выпавших осадков за период времени, мм. При наведении курсора мыши на число - период времени, за который выпало указанное количество осадков.
R24 - Количество осадков - Количество выпавших осадков за 24 часа, мм.
S - Снежный покров - Высота снежного покрова, см. При наведении курсора мыши на число - состояние снежного покрова и степень покрытия местности в баллах.